Time,TemperatureF,DewpointF,PressureIn,WindDirection,WindDirectionDegrees,WindSpeedMPH,WindSpeedGustMPH,Humidity,HourlyPrecipIn,Conditions,Clouds,dailyrainin,SoftwareType,DateUTC
2013-05-13 00:02:00,42.0,39.0,30.19,WNW,297,0.0,0.0,88,0.00,,,0.00,,2013-05-13 05:02:00,
2013-05-13 00:12:00,42.0,39.0,30.19,WNW,297,0.0,0.0,88,0.00,,,0.00,,2013-05-13 05:12:00,
2013-05-13 00:21:00,42.0,39.0,30.19,WNW,297,0.0,0.0,90,0.00,,,0.00,,2013-05-13 05:21:00,
2013-05-13 00:32:00,42.0,40.0,30.19,WNW,297,0.0,0.0,91,0.00,,,0.00,,2013-05-13 05:32:00,
2013-05-13 00:42:00,42.0,40.0,30.19,WNW,297,0.0,0.0,91,0.00,,,0.00,,2013-05-13 05:42:00,
2013-05-13 00:52:00,42.0,40.0,30.19,WNW,297,0.0,0.0,91,0.00,,,0.00,,2013-05-13 05:52:00,
2013-05-13 01:01:00,41.0,39.0,30.19,WNW,297,0.0,0.0,91,0.00,,,0.00,,2013-05-13 06:01:00,
2013-05-13 01:11:00,41.0,39.0,30.19,WNW,297,0.0,0.0,91,0.00,,,0.00,,2013-05-13 06:11:00,
2013-05-13 01:21:00,41.0,39.0,30.19,WNW,297,0.0,0.0,92,0.00,,,0.00,,2013-05-13 06:21:00,
2013-05-13 01:31:00,41.0,39.0,30.19,WNW,297,0.0,0.0,92,0.00,,,0.00,,2013-05-13 06:31:00,
2013-05-13 01:42:00,41.0,39.0,30.19,WNW,297,0.0,0.0,92,0.00,,,0.00,,2013-05-13 06:42:00,
2013-05-13 01:52:00,41.0,39.0,30.19,WNW,297,0.0,0.0,92,0.00,,,0.00,,2013-05-13 06:52:00,
2013-05-13 02:01:00,41.0,39.0,30.18,WNW,297,0.0,0.0,92,0.00,,,0.00,,2013-05-13 07:01:00,
2013-05-13 02:11:00,41.0,39.0,30.18,WNW,297,0.0,0.0,92,0.00,,,0.00,,2013-05-13 07:11:00,
2013-05-13 02:22:00,41.0,39.0,30.18,WNW,297,0.0,0.0,93,0.00,,,0.00,,2013-05-13 07:22:00,
2013-05-13 02:31:00,40.0,38.0,30.18,WNW,297,0.0,0.0,92,0.00,,,0.00,,2013-05-13 07:31:00,
2013-05-13 02:41:00,40.0,38.0,30.18,WNW,297,0.0,0.0,92,0.00,,,0.00,,2013-05-13 07:41:00,
2013-05-13 02:52:00,39.0,37.0,30.19,WNW,297,0.0,0.0,93,0.00,,,0.00,,2013-05-13 07:52:00,
2013-05-13 03:02:00,39.0,37.0,30.19,WNW,297,0.0,0.0,93,0.00,,,0.00,,2013-05-13 08:02:00,
2013-05-13 03:11:00,39.0,37.0,30.19,WNW,297,0.0,0.0,93,0.00,,,0.00,,2013-05-13 08:11:00,
2013-05-13 03:21:00,39.0,37.0,30.19,WNW,297,0.0,0.0,94,0.00,,,0.00,,2013-05-13 08:21:00,
2013-05-13 03:31:00,39.0,37.0,30.19,WNW,297,0.0,0.0,94,0.00,,,0.00,,2013-05-13 08:31:00,
2013-05-13 03:42:00,39.0,37.0,30.19,WNW,297,0.0,0.0,94,0.00,,,0.00,,2013-05-13 08:42:00,
2013-05-13 03:52:00,39.0,37.0,30.19,WNW,297,0.0,0.0,94,0.00,,,0.00,,2013-05-13 08:52:00,
2013-05-13 04:01:00,39.0,37.0,30.19,WNW,297,0.0,0.0,94,0.00,,,0.00,,2013-05-13 09:01:00,
2013-05-13 04:11:00,39.0,37.0,30.19,WNW,297,0.0,0.0,94,0.00,,,0.00,,2013-05-13 09:11:00,
2013-05-13 04:21:00,38.0,36.0,30.19,WNW,297,0.0,0.0,94,0.00,,,0.00,,2013-05-13 09:21:00,
2013-05-13 04:33:00,38.0,36.0,30.19,WNW,297,0.0,0.0,94,0.00,,,0.00,,2013-05-13 09:33:00,
2013-05-13 04:42:00,38.0,36.0,30.19,WNW,297,0.0,0.0,94,0.00,,,0.00,,2013-05-13 09:42:00,
2013-05-13 04:52:00,38.0,36.0,30.20,WNW,297,0.0,0.0,94,0.00,,,0.00,,2013-05-13 09:52:00,
2013-05-13 05:03:00,38.0,36.0,30.20,WNW,297,0.0,0.0,94,0.00,,,0.00,,2013-05-13 10:03:00,
2013-05-13 05:12:00,38.0,36.0,30.20,WNW,297,0.0,0.0,94,0.00,,,0.00,,2013-05-13 10:12:00,
2013-05-13 05:22:00,38.0,37.0,30.19,WNW,297,0.0,0.0,95,0.00,,,0.00,,2013-05-13 10:22:00,
2013-05-13 05:32:00,38.0,37.0,30.20,WNW,297,0.0,1.0,95,0.00,,,0.00,,2013-05-13 10:32:00,
2013-05-13 05:42:00,38.0,37.0,30.20,WNW,297,0.0,1.0,95,0.00,,,0.00,,2013-05-13 10:42:00,
2013-05-13 05:52:00,38.0,37.0,30.20,WNW,297,0.0,1.0,95,0.00,,,0.00,,2013-05-13 10:52:00,
2013-05-13 06:02:00,38.0,37.0,30.20,WNW,297,0.0,0.0,95,0.00,,,0.00,,2013-05-13 11:02:00,
2013-05-13 06:12:00,38.0,37.0,30.20,WNW,297,0.0,0.0,95,0.00,,,0.00,,2013-05-13 11:12:00,
2013-05-13 06:21:00,39.0,38.0,30.20,WNW,297,0.0,1.0,95,0.00,,,0.00,,2013-05-13 11:21:00,
2013-05-13 06:32:00,40.0,39.0,30.21,WNW,297,0.0,0.0,95,0.00,,,0.00,,2013-05-13 11:32:00,
2013-05-13 06:42:00,40.0,39.0,30.21,WNW,297,0.0,0.0,95,0.00,,,0.00,,2013-05-13 11:42:00,
2013-05-13 06:52:00,40.0,39.0,30.22,South,187,0.0,2.0,95,0.00,,,0.00,,2013-05-13 11:52:00,
2013-05-13 07:01:00,41.0,39.0,30.22,South,187,0.0,2.0,94,0.00,,,0.00,,2013-05-13 12:01:00,
2013-05-13 07:11:00,41.0,39.0,30.22,South,187,0.0,2.0,94,0.00,,,0.00,,2013-05-13 12:11:00,
2013-05-13 07:21:00,43.0,41.0,30.22,South,187,0.0,1.0,94,0.00,,,0.00,,2013-05-13 12:21:00,
2013-05-13 07:32:00,45.0,43.0,30.23,SW,236,3.0,5.0,91,0.00,,,0.00,,2013-05-13 12:32:00,
2013-05-13 07:42:00,45.0,43.0,30.23,SW,236,3.0,5.0,91,0.00,,,0.00,,2013-05-13 12:42:00,
2013-05-13 07:51:00,47.0,43.0,30.23,WSW,237,2.0,5.0,85,0.00,,,0.00,,2013-05-13 12:51:00,
2013-05-13 08:01:00,47.0,43.0,30.23,WSW,237,2.0,5.0,85,0.00,,,0.00,,2013-05-13 13:01:00,
2013-05-13 08:11:00,47.0,43.0,30.23,WSW,237,2.0,5.0,85,0.00,,,0.00,,2013-05-13 13:11:00,
2013-05-13 08:21:00,48.0,43.0,30.24,WSW,244,1.0,5.0,83,0.00,,,0.00,,2013-05-13 13:21:00,
2013-05-13 08:31:00,50.0,43.0,30.24,WSW,251,1.0,7.0,77,0.00,,,0.00,,2013-05-13 13:31:00,
2013-05-13 08:42:00,50.0,43.0,30.24,WSW,251,1.0,7.0,77,0.00,,,0.00,,2013-05-13 13:42:00,
2013-05-13 08:52:00,51.0,44.0,30.24,SW,232,3.0,5.0,76,0.00,,,0.00,,2013-05-13 13:52:00,
2013-05-13 09:02:00,53.0,43.0,30.25,SW,234,3.0,7.0,70,0.00,,,0.00,,2013-05-13 14:02:00,
2013-05-13 09:11:00,53.0,43.0,30.25,SW,234,3.0,7.0,70,0.00,,,0.00,,2013-05-13 14:11:00,
2013-05-13 09:22:00,54.0,43.0,30.26,SW,220,2.0,6.0,67,0.00,,,0.00,,2013-05-13 14:22:00,
2013-05-13 09:32:00,55.0,43.0,30.26,SW,232,2.0,8.0,63,0.00,,,0.00,,2013-05-13 14:32:00,
2013-05-13 09:41:00,55.0,43.0,30.26,SW,232,2.0,8.0,63,0.00,,,0.00,,2013-05-13 14:41:00,
2013-05-13 09:51:00,57.0,41.0,30.26,West,277,3.0,8.0,56,0.00,,,0.00,,2013-05-13 14:51:00,
2013-05-13 10:01:00,58.0,42.0,30.26,West,260,4.0,7.0,55,0.00,,,0.00,,2013-05-13 15:01:00,
2013-05-13 10:11:00,58.0,42.0,30.26,West,260,4.0,7.0,55,0.00,,,0.00,,2013-05-13 15:11:00,
2013-05-13 10:21:00,59.0,41.0,30.26,West,266,3.0,7.0,51,0.00,,,0.00,,2013-05-13 15:21:00,
2013-05-13 10:31:00,60.0,39.0,30.26,WSW,247,3.0,9.0,46,0.00,,,0.00,,2013-05-13 15:31:00,
2013-05-13 10:42:00,60.0,39.0,30.26,WSW,247,3.0,9.0,46,0.00,,,0.00,,2013-05-13 15:42:00,
2013-05-13 10:53:00,60.0,37.0,30.26,NW,319,3.0,8.0,43,0.00,,,0.00,,2013-05-13 15:53:00,
2013-05-13 11:03:00,62.0,37.0,30.26,West,280,5.0,9.0,39,0.00,,,0.00,,2013-05-13 16:03:00,
2013-05-13 11:11:00,62.0,37.0,30.26,West,280,5.0,9.0,39,0.00,,,0.00,,2013-05-13 16:11:00,
2013-05-13 11:21:00,61.0,38.0,30.26,SSW,208,1.0,9.0,42,0.00,,,0.00,,2013-05-13 16:21:00,
2013-05-13 11:33:00,62.0,36.0,30.26,WSW,257,2.0,10.0,38,0.00,,,0.00,,2013-05-13 16:33:00,
2013-05-13 11:42:00,62.0,39.0,30.25,SW,234,4.0,11.0,43,0.00,,,0.00,,2013-05-13 16:42:00,
2013-05-13 11:52:00,62.0,39.0,30.25,SW,234,4.0,11.0,43,0.00,,,0.00,,2013-05-13 16:52:00,
2013-05-13 12:02:00,63.0,38.0,30.25,NW,325,2.0,10.0,40,0.00,,,0.00,,2013-05-13 17:02:00,
2013-05-13 12:12:00,63.0,38.0,30.25,NW,325,2.0,10.0,40,0.00,,,0.00,,2013-05-13 17:12:00,
2013-05-13 12:21:00,63.0,35.0,30.25,NW,318,1.0,9.0,35,0.00,,,0.00,,2013-05-13 17:21:00,
2013-05-13 12:32:00,63.0,36.0,30.25,WNW,288,3.0,9.0,36,0.00,,,0.00,,2013-05-13 17:32:00,
2013-05-13 12:42:00,63.0,36.0,30.25,WNW,288,3.0,9.0,36,0.00,,,0.00,,2013-05-13 17:42:00,
2013-05-13 12:54:00,63.0,35.0,30.24,West,277,4.0,8.0,35,0.00,,,0.00,,2013-05-13 17:54:00,
2013-05-13 13:03:00,64.0,37.0,30.24,West,277,2.0,9.0,36,0.00,,,0.00,,2013-05-13 18:03:00,
2013-05-13 13:12:00,64.0,37.0,30.24,West,277,2.0,9.0,36,0.00,,,0.00,,2013-05-13 18:12:00,
2013-05-13 13:23:00,64.0,35.0,30.23,WNW,293,2.0,8.0,34,0.00,,,0.00,,2013-05-13 18:23:00,
2013-05-13 13:32:00,65.0,37.0,30.23,WSW,250,3.0,10.0,36,0.00,,,0.00,,2013-05-13 18:32:00,
2013-05-13 13:42:00,64.0,33.0,30.23,NNW,329,3.0,13.0,31,0.00,,,0.00,,2013-05-13 18:42:00,
2013-05-13 13:51:00,64.0,33.0,30.23,NNW,329,3.0,13.0,31,0.00,,,0.00,,2013-05-13 18:51:00,
2013-05-13 14:01:00,65.0,35.0,30.22,West,279,3.0,9.0,33,0.00,,,0.00,,2013-05-13 19:01:00,
2013-05-13 14:11:00,65.0,35.0,30.22,West,279,3.0,9.0,33,0.00,,,0.00,,2013-05-13 19:11:00,
2013-05-13 14:21:00,65.0,36.0,30.22,NNW,331,4.0,11.0,34,0.00,,,0.00,,2013-05-13 19:21:00,
2013-05-13 14:32:00,66.0,38.0,30.21,NW,325,5.0,9.0,35,0.00,,,0.00,,2013-05-13 19:32:00,
2013-05-13 14:44:00,66.0,38.0,30.21,NW,325,5.0,9.0,35,0.00,,,0.00,,2013-05-13 19:44:00,
2013-05-13 14:53:00,66.0,34.0,30.21,SW,232,2.0,10.0,30,0.00,,,0.00,,2013-05-13 19:53:00,
2013-05-13 15:01:00,66.0,36.0,30.20,NW,308,2.0,11.0,33,0.00,,,0.00,,2013-05-13 20:01:00,
2013-05-13 15:11:00,66.0,36.0,30.20,NW,308,2.0,11.0,33,0.00,,,0.00,,2013-05-13 20:11:00,
2013-05-13 15:23:00,66.0,37.0,30.19,WNW,298,1.0,8.0,34,0.00,,,0.00,,2013-05-13 20:23:00,
2013-05-13 15:33:00,67.0,39.0,30.19,West,281,1.0,9.0,36,0.00,,,0.00,,2013-05-13 20:33:00,
2013-05-13 15:44:00,67.0,39.0,30.19,West,281,1.0,9.0,36,0.00,,,0.00,,2013-05-13 20:44:00,
2013-05-13 15:53:00,67.0,38.0,30.19,SW,227,0.0,6.0,35,0.00,,,0.00,,2013-05-13 20:53:00,
2013-05-13 16:03:00,68.0,41.0,30.18,West,277,3.0,8.0,37,0.00,,,0.00,,2013-05-13 21:03:00,
2013-05-13 16:14:00,68.0,41.0,30.18,West,277,3.0,8.0,37,0.00,,,0.00,,2013-05-13 21:14:00,
2013-05-13 16:23:00,68.0,40.0,30.17,SSW,212,2.0,6.0,36,0.00,,,0.00,,2013-05-13 21:23:00,
2013-05-13 16:33:00,68.0,35.0,30.16,WSW,255,2.0,9.0,30,0.00,,,0.00,,2013-05-13 21:33:00,
2013-05-13 16:43:00,68.0,35.0,30.16,WSW,255,2.0,9.0,30,0.00,,,0.00,,2013-05-13 21:43:00,
2013-05-13 16:53:00,68.0,35.0,30.16,NNW,328,0.0,9.0,30,0.00,,,0.00,,2013-05-13 21:53:00,
2013-05-13 17:02:00,68.0,35.0,30.16,NNW,329,1.0,9.0,29,0.00,,,0.00,,2013-05-13 22:02:00,
2013-05-13 17:12:00,68.0,35.0,30.16,NNW,329,1.0,9.0,29,0.00,,,0.00,,2013-05-13 22:12:00,
2013-05-13 17:23:00,68.0,34.0,30.16,WSW,240,2.0,7.0,28,0.00,,,0.00,,2013-05-13 22:23:00,
2013-05-13 17:32:00,68.0,35.0,30.16,West,279,2.0,7.0,29,0.00,,,0.00,,2013-05-13 22:32:00,
2013-05-13 17:43:00,69.0,40.0,30.15,North,355,1.0,6.0,35,0.00,,,0.00,,2013-05-13 22:43:00,
2013-05-13 17:52:00,69.0,40.0,30.15,North,355,1.0,6.0,35,0.00,,,0.00,,2013-05-13 22:52:00,
2013-05-13 18:02:00,68.0,36.0,30.15,SW,235,2.0,7.0,31,0.00,,,0.00,,2013-05-13 23:02:00,
2013-05-13 18:12:00,68.0,36.0,30.15,SW,235,2.0,7.0,31,0.00,,,0.00,,2013-05-13 23:12:00,
2013-05-13 18:23:00,68.0,37.0,30.14,SW,227,3.0,6.0,32,0.00,,,0.00,,2013-05-13 23:23:00,
2013-05-13 18:33:00,67.0,35.0,30.14,West,276,2.0,6.0,30,0.00,,,0.00,,2013-05-13 23:33:00,
2013-05-13 18:42:00,67.0,35.0,30.14,West,276,2.0,6.0,30,0.00,,,0.00,,2013-05-13 23:42:00,
2013-05-13 18:53:00,67.0,34.0,30.14,SW,217,1.0,5.0,29,0.00,,,0.00,,2013-05-13 23:53:00,
2013-05-13 19:02:00,66.0,34.0,30.14,WNW,299,0.0,4.0,30,0.00,,,0.00,,2013-05-14 00:02:00,
2013-05-13 19:12:00,66.0,34.0,30.14,WNW,299,0.0,4.0,30,0.00,,,0.00,,2013-05-14 00:12:00,
2013-05-13 19:22:00,65.0,38.0,30.14,SW,236,1.0,5.0,37,0.00,,,0.00,,2013-05-14 00:22:00,
2013-05-13 19:31:00,65.0,37.0,30.14,SW,236,0.0,4.0,36,0.00,,,0.00,,2013-05-14 00:31:00,
2013-05-13 19:41:00,65.0,37.0,30.14,SW,236,0.0,4.0,36,0.00,,,0.00,,2013-05-14 00:41:00,
2013-05-13 19:51:00,64.0,39.0,30.14,SW,236,0.0,1.0,39,0.00,,,0.00,,2013-05-14 00:51:00,
2013-05-13 20:01:00,63.0,38.0,30.14,SW,236,0.0,0.0,39,0.00,,,0.00,,2013-05-14 01:01:00,
2013-05-13 20:11:00,63.0,38.0,30.14,SW,236,0.0,0.0,39,0.00,,,0.00,,2013-05-14 01:11:00,
2013-05-13 20:21:00,61.0,43.0,30.15,SSE,156,0.0,2.0,52,0.00,,,0.00,,2013-05-14 01:21:00,
2013-05-13 20:32:00,59.0,46.0,30.14,SSE,156,0.0,0.0,62,0.00,,,0.00,,2013-05-14 01:32:00,
2013-05-13 20:43:00,59.0,46.0,30.14,SSE,156,0.0,0.0,62,0.00,,,0.00,,2013-05-14 01:43:00,
2013-05-13 20:52:00,58.0,45.0,30.14,SSE,156,0.0,1.0,61,0.00,,,0.00,,2013-05-14 01:52:00,
2013-05-13 21:02:00,57.0,45.0,30.14,SSE,156,0.0,0.0,64,0.00,,,0.00,,2013-05-14 02:02:00,
2013-05-13 21:11:00,57.0,45.0,30.14,SSE,156,0.0,0.0,64,0.00,,,0.00,,2013-05-14 02:11:00,
2013-05-13 21:22:00,56.0,50.0,30.14,SSE,156,0.0,1.0,79,0.00,,,0.00,,2013-05-14 02:22:00,
2013-05-13 21:32:00,54.0,47.0,30.14,SSE,156,0.0,0.0,78,0.00,,,0.00,,2013-05-14 02:32:00,
2013-05-13 21:42:00,54.0,47.0,30.14,SSE,156,0.0,0.0,78,0.00,,,0.00,,2013-05-14 02:42:00,
2013-05-13 21:52:00,53.0,45.0,30.14,SSE,156,0.0,1.0,75,0.00,,,0.00,,2013-05-14 02:52:00,
2013-05-13 22:01:00,53.0,44.0,30.14,SSE,156,0.0,0.0,72,0.00,,,0.00,,2013-05-14 03:01:00,
2013-05-13 22:11:00,53.0,44.0,30.14,SSE,156,0.0,0.0,72,0.00,,,0.00,,2013-05-14 03:11:00,
2013-05-13 22:21:00,53.0,43.0,30.14,SSE,156,0.0,0.0,69,0.00,,,0.00,,2013-05-14 03:21:00,
2013-05-13 22:33:00,53.0,44.0,30.14,SSE,156,0.0,0.0,72,0.00,,,0.00,,2013-05-14 03:33:00,
2013-05-13 22:42:00,53.0,44.0,30.14,SSE,156,0.0,0.0,72,0.00,,,0.00,,2013-05-14 03:42:00,
2013-05-13 22:52:00,53.0,44.0,30.14,SSE,156,0.0,1.0,71,0.00,,,0.00,,2013-05-14 03:52:00,
2013-05-13 23:02:00,53.0,43.0,30.14,SSE,156,0.0,1.0,69,0.00,,,0.00,,2013-05-14 04:02:00,
2013-05-13 23:13:00,53.0,43.0,30.14,SSE,156,0.0,1.0,69,0.00,,,0.00,,2013-05-14 04:13:00,
2013-05-13 23:23:00,53.0,43.0,30.13,South,190,2.0,5.0,69,0.00,,,0.00,,2013-05-14 04:23:00,
2013-05-13 23:32:00,53.0,43.0,30.13,South,170,0.0,2.0,70,0.00,,,0.00,,2013-05-14 04:32:00,
2013-05-13 23:43:00,53.0,43.0,30.13,South,170,0.0,2.0,70,0.00,,,0.00,,2013-05-14 04:43:00,
2013-05-13 23:52:00,53.0,43.0,30.12,SSE,159,2.0,5.0,68,0.00,,,0.00,,2013-05-14 04:52:00,